Location: Melizzano
(41.1500°N, 14.5000°E)
Time: 06:11:38
(UTC+00:00)

Cosmos 1833 - Pass Details

Date: 11 May 2021
Orbit: 833 x 865 km, 70.9° (Epoch: 20 June)

Event Time Altitude Azimuth Distance (km) Brightness Sun altitude
Rises 23:02:01 0° 336° (NNW) 3,442 8.3 -30.7°
Reaches altitude 10° 23:04:29 10° 337° (NNW) 2,506 7.4 -30.7°
Enters shadow 23:09:31 69° 352° (N) 925 4.4 -30.7°
